FW7305 Weather Reports


time (UTC)temp
F
wind
direction
speed
knots
gust
knots
rain 1hr
in
rain 24hr
in
rain mn
in
humidity
%
barometer
mb
20260510223720 57 263 4.3 11.3 0.00 0.06 0.06 41 1013.1
20260510223216 57 262 4.3 7.0 0.00 0.06 0.06 40 1013.1
20260510222713 57 277 3.5 4.3 0.00 0.06 0.06 43 1013.1
20260510222210 57 290 1.7 2.6 0.00 0.06 0.06 44 1012.9
20260510221705 57 178 1.7 4.3 0.00 0.06 0.06 44 1012.8
20260510221203 57 205 3.5 7.8 0.00 0.06 0.06 43 1012.8
20260510220700 58 254 3.5 5.2 0.00 0.06 0.06 41 1012.6
20260510220159 58 110 0.9 1.7 0.00 0.06 0.06 40 1012.6
20260510215657 57 244 7.8 9.6 0.00 0.06 0.06 38 1012.2
20260510215156 57 240 12.2 15.6 0.00 0.06 0.06 37 1012.4
20260510214652 58 284 8.7 12.2 0.00 0.06 0.06 37 1012.1
20260510214149 58 249 7.8 9.6 0.00 0.06 0.06 37 1012.3
20260510213646 58 254 7.0 9.6 0.00 0.06 0.06 38 1012.2
20260510213142 58 216 5.2 9.6 0.00 0.06 0.06 38 1011.9
20260510212638 59 229 6.1 8.7 0.00 0.06 0.06 36 1011.9
20260510212136 59 278 6.1 7.0 0.00 0.06 0.06 37 1011.7
20260510211632 61 281 7.0 8.7 0.00 0.06 0.06 33 1011.9
20260510211127 61 282 5.2 7.0 0.00 0.06 0.06 34 1011.8
20260510210624 61 332 2.6 4.3 0.00 0.06 0.06 36 1011.6
20260510210119 61 258 5.2 7.0 0.00 0.06 0.06 34 1011.4
20260510205618 61 250 7.0 7.8 0.00 0.06 0.06 33 1011.4
20260510205114 60 204 1.7 2.6 0.00 0.06 0.06 34 1011.4
20260510204611 61 265 12.2 13.0 0.00 0.06 0.06 32 1011.5
20260510204108 60 275 8.7 15.6 0.00 0.06 0.06 33 1011.2
20260510203604 60 288 7.8 9.6 0.00 0.06 0.06 33 1011.3
20260510203101 60 273 9.6 13.0 0.00 0.06 0.06 33 1011.3
20260510202600 61 307 11.3 17.4 0.00 0.06 0.06 32 1011.1
20260510202056 61 268 4.3 6.1 0.00 0.06 0.06 33 1011.3
20260510201554 61 280 11.3 18.2 0.00 0.06 0.06 32 1011.2
20260510201051 61 213 4.3 7.0 0.00 0.06 0.06 34 1010.9
20260510200546 61 282 7.8 9.6 0.00 0.06 0.06 34 1010.9
20260510200045 62 198 4.3 6.1 0.00 0.06 0.06 35 1010.8
20260510195542 62 243 6.1 9.6 0.00 0.06 0.06 34 1010.9
20260510195038 61 254 4.3 6.1 0.00 0.06 0.06 34 1010.8
20260510194533 61 263 13.0 21.7 0.00 0.06 0.06 32 1011.0
20260510194030 61 267 5.2 7.0 0.00 0.06 0.06 35 1010.7
20260510193525 62 347 5.2 7.0 0.00 0.06 0.06 33 1010.9
20260510193021 62 200 0.9 2.6 0.00 0.06 0.06 37 1010.5
20260510192515 63 254 5.2 7.0 0.00 0.06 0.06 34 1010.6
20260510192012 62 12 4.3 6.1 0.00 0.06 0.06 36 1010.6
20260510191508 63 275 4.3 7.8 0.00 0.06 0.06 34 1010.6
20260510191005 62 328 5.2 7.8 0.00 0.06 0.06 34 1010.5
20260510190502 62 176 4.3 6.1 0.00 0.06 0.06 33 1010.8
20260510185959 61 256 9.6 12.2 0.00 0.06 0.06 33 1010.6
20260510185456 62 256 6.1 9.6 0.00 0.06 0.06 31 1010.8
20260510184954 62 257 6.1 9.6 0.00 0.06 0.06 33 1010.7
20260510184451 61 312 4.3 8.7 0.00 0.06 0.06 33 1010.5
20260510183951 61 266 7.0 11.3 0.00 0.06 0.06 33 1010.4
20260510183447 63 259 5.2 9.6 0.00 0.06 0.06 33 1010.5
20260510182947 63 184 2.6 4.3 0.00 0.06 0.06 38 1010.3
20260510182444 62 271 3.5 4.3 0.00 0.06 0.06 37 1010.3
20260510181939 61 305 6.1 7.8 0.00 0.06 0.06 36 1010.2
20260510181438 61 251 6.1 8.7 0.00 0.06 0.06 33 1010.6
20260510180933 62 257 3.5 5.2 0.00 0.06 0.06 36 1010.2
20260510180431 61 250 7.8 12.2 0.00 0.06 0.06 31 1010.3
20260510175928 61 265 8.7 14.8 0.00 0.06 0.06 34 1010.2
20260510175423 61 222 7.0 8.7 0.00 0.06 0.06 32 1010.3
20260510174919 61 222 9.6 12.2 0.00 0.06 0.06 32 1010.1
20260510174418 61 0 6.1 11.3 0.00 0.06 0.06 34 1009.9
20260510173914 61 259 14.8 17.4 0.00 0.06 0.06 29 1010.1
20260510173409 61 279 11.3 13.9 0.00 0.06 0.06 31 1010.1
20260510172906 61 262 11.3 14.8 0.00 0.06 0.06 31 1010.0
20260510172402 60 245 7.8 9.6 0.00 0.06 0.06 30 1009.9
20260510171858 61 272 14.8 18.2 0.00 0.06 0.06 29 1010.0
20260510171356 61 245 12.2 15.6 0.00 0.06 0.06 28 1010.0
20260510170853 61 237 8.7 13.9 0.00 0.06 0.06 31 1009.8
20260510170349 62 226 5.2 7.8 0.00 0.06 0.06 33 1010.1
20260510165844 61 258 7.0 11.3 0.00 0.06 0.06 33 1009.8
20260510165341 61 256 7.0 9.6 0.00 0.06 0.06 29 1009.9
20260510164838 61 250 4.3 7.0 0.00 0.06 0.06 30 1010.1
20260510164336 60 286 11.3 13.9 0.00 0.06 0.06 28 1010.0
20260510163835 61 199 7.8 14.8 0.00 0.06 0.06 29 1010.0
20260510163332 61 256 5.2 7.0 0.00 0.06 0.06 33 1009.8
20260510162826 61 202 6.1 7.8 0.00 0.06 0.06 30 1009.8
20260510162324 61 260 6.1 11.3 0.00 0.06 0.06 32 1009.7
20260510161819 61 264 7.8 13.0 0.00 0.06 0.06 33 1009.8
20260510161315 61 246 7.0 11.3 0.00 0.06 0.06 33 1009.8
20260510160812 60 171 2.6 4.3 0.00 0.06 0.06 36 1009.9
20260510160308 60 281 8.7 11.3 0.00 0.06 0.06 34 1009.8
20260510155803 60 260 10.4 14.8 0.00 0.06 0.06 34 1009.8
20260510155259 60 219 7.0 9.6 0.00 0.06 0.06 35 1009.8
20260510154755 59 164 3.5 6.1 0.00 0.06 0.06 39 1009.6
20260510154252 60 225 9.6 14.8 0.00 0.06 0.06 38 1009.8
20260510153746 60 260 6.1 7.8 0.00 0.06 0.06 41 1009.8
20260510153242 60 187 1.7 1.7 0.00 0.06 0.06 45 1009.7
20260510152734 60 282 7.8 9.6 0.00 0.06 0.06 41 1009.8
20260510152230 60 194 2.6 4.3 0.00 0.06 0.06 42 1009.9
20260510151726 59 29 7.0 11.3 0.00 0.06 0.06 44 1009.6
20260510151226 59 231 7.8 7.8 0.00 0.06 0.06 42 1009.4
20260510150720 59 199 7.0 8.7 0.00 0.06 0.06 41 1009.6
20260510150216 59 242 3.5 4.3 0.00 0.06 0.06 45 1009.6
20260510145713 59 262 7.8 11.3 0.00 0.06 0.06 41 1009.8
20260510145209 59 278 7.8 11.3 0.00 0.06 0.06 43 1009.6
20260510144705 59 261 5.2 6.1 0.00 0.06 0.06 44 1009.4
20260510144202 59 267 4.3 6.1 0.00 0.06 0.06 42 1009.3
20260510143657 58 257 4.3 5.2 0.00 0.06 0.06 42 1009.3
20260510143154 59 259 8.7 13.0 0.00 0.06 0.06 37 1009.3
20260510142650 58 233 7.0 9.6 0.00 0.06 0.06 43 1009.0
20260510142147 58 274 7.0 8.7 0.00 0.06 0.06 44 1009.2
20260510141644 59 258 6.1 7.0 0.00 0.06 0.06 47 1009.1
20260510141142 59 283 5.2 7.0 0.00 0.06 0.06 46 1009.2
20260510140638 59 244 4.3 6.1 0.00 0.06 0.06 49 1009.1
20260510140137 58 219 6.1 7.8 0.00 0.06 0.06 50 1008.9
20260510135632 58 311 6.1 11.3 0.00 0.06 0.06 53 1009.1
20260510135129 58 243 5.2 7.8 0.00 0.06 0.06 55 1009.0
20260510134626 58 307 5.2 6.1 0.00 0.06 0.06 57 1009.1
20260510134123 57 238 2.6 5.2 0.00 0.06 0.06 59 1008.9
20260510133620 57 260 7.8 13.0 0.00 0.06 0.06 58 1008.9
20260510133115 57 266 4.3 6.1 0.00 0.06 0.06 57 1009.1
20260510132612 56 273 5.2 7.0 0.00 0.06 0.06 57 1009.0
20260510132109 56 196 8.7 13.9 0.00 0.06 0.06 56 1008.6
20260510131607 56 246 6.1 7.8 0.00 0.06 0.06 56 1009.0
20260510131104 55 281 6.1 9.6 0.00 0.06 0.06 55 1008.8
20260510130600 55 179 3.5 5.2 0.00 0.06 0.06 57 1008.5
20260510130058 55 191 5.2 7.0 0.00 0.06 0.06 55 1008.7
20260510125554 55 223 4.3 7.0 0.00 0.06 0.06 57 1008.7
20260510125050 55 238 6.1 7.0 0.00 0.06 0.06 58 1008.5
20260510124547 55 247 2.6 4.3 0.00 0.06 0.06 61 1008.8
20260510124044 54 249 7.0 8.7 0.00 0.06 0.06 64 1008.6
20260510123539 54 256 7.0 8.7 0.00 0.06 0.06 66 1008.6
20260510123035 54 227 9.6 11.3 0.00 0.06 0.06 64 1008.4
20260510122531 54 287 7.0 8.7 0.00 0.06 0.06 66 1008.2
20260510122028 54 233 6.1 7.8 0.00 0.06 0.06 64 1008.6
20260510121525 54 222 7.8 9.6 0.00 0.06 0.06 63 1008.5
20260510121022 54 221 7.0 8.7 0.00 0.06 0.06 62 1008.3
20260510120519 55 267 6.1 8.7 0.00 0.06 0.06 59 1008.4
20260510120015 55 237 2.6 5.2 0.00 0.06 0.06 63 1008.2
20260510115512 54 255 9.6 11.3 0.00 0.06 0.06 64 1008.0
20260510115008 54 264 4.3 5.2 0.00 0.06 0.06 71 1008.3
20260510114505 53 202 4.3 6.1 0.00 0.06 0.06 70 1008.3
20260510114001 53 233 1.7 2.6 0.00 0.06 0.06 75 1008.0
20260510113456 54 181 2.6 5.2 0.00 0.06 0.06 76 1008.1
20260510112954 54 220 4.3 7.0 0.00 0.06 0.06 76 1007.9
20260510112451 54 184 4.3 7.0 0.00 0.06 0.06 79 1007.9
20260510111947 53 221 2.6 4.3 0.00 0.06 0.06 78 1007.9
20260510111443 52 248 4.3 6.1 0.00 0.06 0.06 81 1007.8
20260510110940 52 233 2.6 2.6 0.00 0.06 0.06 82 1007.6
20260510110436 53 194 7.0 8.7 0.00 0.06 0.06 79 1007.4
20260510105932 53 207 4.3 6.1 0.00 0.06 0.06 79 1007.4
20260510105427 53 197 1.7 2.6 0.00 0.06 0.06 78 1007.5
20260510104922 53 157 3.5 5.2 0.00 0.06 0.06 76 1007.5
20260510104419 53 237 7.0 9.6 0.00 0.06 0.06 76 1007.1
20260510103915 53 226 7.8 9.6 0.00 0.06 0.06 79 1007.4
20260510103413 53 290 7.0 9.6 0.00 0.06 0.06 79 1007.4
20260510102908 54 221 5.2 6.1 0.00 0.06 0.06 78 1007.3
20260510102404 54 252 3.5 5.2 0.00 0.06 0.06 78 1007.3
20260510101902 53 242 3.5 5.2 0.00 0.06 0.06 79 1007.2
20260510101400 53 234 3.5 6.1 0.00 0.06 0.06 80 1006.9
20260510100856 53 271 4.3 5.2 0.00 0.06 0.06 80 1006.9
20260510100354 53 198 6.1 8.7 0.00 0.06 0.06 80 1006.9
20260510095850 52 210 3.5 6.1 0.00 0.06 0.06 82 1006.8
20260510095345 52 211 4.3 6.1 0.00 0.06 0.06 83 1006.6
20260510094844 51 248 4.3 6.1 0.00 0.06 0.06 84 1006.6
20260510094334 51 213 4.3 7.8 0.00 0.06 0.06 84 1006.6
20260510093831 51 179 6.1 7.0 0.00 0.06 0.06 84 1006.5
20260510093326 51 233 1.7 2.6 0.00 0.06 0.06 84 1006.3
20260510092823 51 162 4.3 8.7 0.00 0.06 0.06 85 1006.2
20260510092319 51 256 5.2 7.8 0.00 0.06 0.06 87 1006.4
20260510091815 51 187 3.5 5.2 0.00 0.06 0.06 87 1006.5
20260510091313 51 165 3.5 6.1 0.00 0.06 0.06 88 1006.3
20260510090809 51 222 2.6 4.3 0.00 0.06 0.06 88 1006.3
20260510090305 51 218 2.6 5.2 0.00 0.06 0.06 87 1006.2
20260510085801 51 234 4.3 6.1 0.00 0.06 0.06 87 1006.1
20260510085255 51 171 4.3 7.0 0.00 0.06 0.06 88 1006.2
20260510084751 51 191 4.3 5.2 0.00 0.06 0.06 88 1006.0
20260510084248 51 182 3.5 5.2 0.00 0.06 0.06 88 1006.1
20260510083745 51 225 4.3 6.1 0.00 0.06 0.06 88 1006.1
20260510083242 51 222 4.3 6.1 0.00 0.06 0.06 88 1006.0
20260510082738 51 201 5.2 7.8 0.00 0.06 0.06 87 1005.9
20260510082234 51 220 3.5 6.1 0.00 0.06 0.06 87 1006.0
20260510081733 51 189 3.5 5.2 0.00 0.06 0.06 87 1006.0
20260510081230 51 203 6.1 7.8 0.00 0.06 0.06 87 1006.2
20260510080725 52 214 7.0 8.7 0.00 0.06 0.06 87 1005.9
20260510080221 52 225 4.3 5.2 0.00 0.06 0.06 87 1006.0
20260510075718 52 151 2.6 4.3 0.00 0.06 0.06 87 1005.8
20260510075216 52 217 3.5 4.3 0.00 0.06 0.06 87 1005.7
20260510074712 52 256 3.5 5.2 0.00 0.06 0.06 87 1006.1
20260510074209 52 223 6.1 9.6 0.00 0.06 0.06 88 1005.7
20260510073705 51 162 6.1 8.7 0.00 0.06 0.06 88 1006.0
20260510073201 51 234 3.5 5.2 0.00 0.06 0.06 88 1005.7
20260510072657 51 230 5.2 6.1 0.00 0.06 0.06 89 1006.0
20260510072154 51 193 6.1 7.0 0.00 0.06 0.06 88 1005.6
20260510071650 51 240 7.0 11.3 0.00 0.06 0.06 88 1005.6
20260510071148 51 198 4.3 6.1 0.00 0.06 0.06 89 1005.8
20260510070645 51 207 4.3 6.1 0.05 0.06 0.06 88 1005.7
20260510070142 51 185 7.8 13.0 0.05 0.06 0.06 88 1005.7
20260510065637 51 226 2.6 4.3 0.00 0.05 0.05 89 1005.6
20260510065133 50 236 4.3 7.0 0.00 0.05 0.05 89 1005.6
20260510064630 50 204 4.3 5.2 0.00 0.05 0.05 89 1005.4
20260510064127 50 170 6.1 7.0 0.00 0.05 0.05 89 1005.5
20260510063624 50 241 6.1 7.8 0.07 0.05 0.05 88 1005.7
20260510063121 50 155 7.0 11.3 0.12 0.05 0.05 88 1005.6
20260510062616 50 182 5.2 7.8 0.05 0.04 0.04 87 1006.0
20260510062113 50 191 4.3 5.2 0.00 0.03 0.03 87 1006.0
20260510061608 50 192 2.6 4.3 0.07 0.03 0.03 86 1006.2
20260510061106 50 199 3.5 5.2 0.07 0.03 0.03 86 1006.1
20260510060602 51 203 5.2 7.0 0.05 0.02 0.02 85 1006.1
20260510060059 51 226 5.2 7.0 0.12 0.02 0.02 83 1005.9
20260510055554 51 209 7.8 11.3 0.07 0.01 0.01 81 1005.9
20260510055053 52 199 11.3 13.9 0.00 0.00 0.00 80 1006.1
20260510054549 52 202 6.1 7.8 0.00 0.00 0.00 76 1006.2
20260510054043 52 208 8.7 9.6 0.00 0.00 0.00 74 1005.8
20260510053538 52 219 6.1 8.7 0.00 0.00 0.00 74 1006.1
20260510053035 52 239 6.1 9.6 0.00 0.00 0.00 74 1005.9
20260510052531 52 173 7.8 11.3 0.00 0.00 0.00 74 1005.7
20260510052027 52 179 8.7 13.0 0.00 0.00 0.00 74 1005.8
20260510051523 52 185 4.3 6.1 0.00 0.00 0.00 73 1005.8
20260510051020 52 170 5.2 7.0 0.00 0.00 0.00 74 1005.8
20260510050517 52 192 7.8 11.3 0.00 0.00 0.00 73 1005.7
20260510050014 52 159 6.1 7.0 0.00 0.00 0.00 73 1005.8
20260510045512 52 150 3.5 6.1 0.00 0.00 0.00 74 1005.8
20260510045007 52 202 5.2 6.1 0.00 0.00 0.00 74 1005.6
20260510044504 52 179 2.6 5.2 0.00 0.00 0.00 74 1005.5
20260510044002 52 177 2.6 4.3 0.00 0.00 0.00 74 1005.7
20260510043457 51 149 3.5 4.3 0.00 0.00 0.00 74 1005.7
20260510042956 51 162 3.5 5.2 0.00 0.00 0.00 75 1005.6
20260510042452 51 183 5.2 7.0 0.00 0.00 0.00 76 1005.6
20260510041947 50 157 2.6 2.6 0.00 0.00 0.00 76 1005.8
20260510041444 50 191 7.8 8.7 0.00 0.00 0.00 76 1005.7
20260510040942 50 149 3.5 5.2 0.00 0.00 0.00 76 1005.8
20260510040438 50 162 3.5 4.3 0.00 0.00 0.00 75 1005.6
20260510035933 51 156 4.3 7.0 0.00 0.00 0.00 75 1005.8
20260510035430 51 168 4.3 5.2 0.00 0.00 0.00 74 1006.0
20260510034930 51 173 4.3 6.1 0.00 0.00 0.00 73 1006.3
20260510034429 51 205 6.1 7.0 0.00 0.00 0.00 73 1006.2
20260510033925 51 164 4.3 6.1 0.00 0.00 0.00 73 1006.1
20260510033416 51 150 9.6 11.3 0.00 0.00 0.00 72 1006.3
20260510032913 51 169 10.4 12.2 0.00 0.00 0.00 72 1006.3
20260510032410 51 167 9.6 13.9 0.00 0.00 0.00 72 1006.1
20260510031905 51 196 4.3 5.2 0.00 0.00 0.00 73 1006.1
20260510031401 51 183 7.0 8.7 0.00 0.00 0.00 74 1006.4
20260510030901 51 155 1.7 1.7 0.00 0.00 0.00 74 1006.3
20260510030357 51 177 2.6 2.6 0.00 0.00 0.00 74 1006.7
20260510025855 50 154 3.5 4.3 0.00 0.00 0.00 74 1006.8
20260510025352 50 150 2.6 2.6 0.00 0.00 0.00 74 1006.5
20260510024849 51 164 3.5 6.1 0.00 0.00 0.00 73 1006.7
20260510024346 51 185 4.3 5.2 0.00 0.00 0.00 72 1006.8
20260510023842 51 155 4.3 5.2 0.00 0.00 0.00 72 1006.8
20260510023338 51 153 5.2 7.0 0.00 0.00 0.00 72 1006.9
20260510022836 51 182 4.3 6.1 0.00 0.00 0.00 72 1006.8
20260510022335 51 165 4.3 5.2 0.00 0.00 0.00 71 1007.0
20260510021834 51 159 3.5 4.3 0.00 0.00 0.00 71 1006.9
20260510021333 51 144 5.2 7.0 0.00 0.00 0.00 70 1007.1
20260510020828 51 169 4.3 6.1 0.00 0.00 0.00 71 1007.1
20260510020323 51 177 6.1 7.0 0.00 0.00 0.00 71 1007.1
20260510015819 51 203 5.2 6.1 0.00 0.00 0.00 70 1006.8
20260510015315 51 126 7.0 8.7 0.00 0.00 0.00 70 1006.7
20260510014810 51 179 6.1 9.6 0.00 0.00 0.00 70 1007.0
20260510014307 52 139 5.2 7.0 0.00 0.00 0.00 70 1007.1
20260510013803 52 195 5.2 7.8 0.00 0.00 0.00 69 1006.8
20260510013259 52 152 5.2 6.1 0.00 0.00 0.00 69 1007.0
20260510012754 52 146 7.0 8.7 0.00 0.00 0.00 69 1007.1
20260510012249 52 157 7.0 7.8 0.00 0.00 0.00 69 1007.1
20260510011749 52 135 5.2 7.0 0.00 0.00 0.00 68 1007.4
20260510011245 52 195 7.0 9.6 0.00 0.00 0.00 68 1006.9
20260510010742 52 140 5.2 7.0 0.00 0.00 0.00 68 1007.1
20260510010238 52 173 5.2 7.8 0.00 0.00 0.00 68 1007.2
20260510005736 52 190 5.2 7.0 0.00 0.00 0.00 68 1007.2
20260510005232 52 197 4.3 5.2 0.00 0.00 0.00 67 1007.2
20260510004730 52 184 9.6 12.2 0.00 0.00 0.00 67 1007.0
20260510004228 52 144 13.0 13.9 0.00 0.00 0.00 67 1007.0
20260510003725 53 166 11.3 14.8 0.00 0.00 0.00 66 1007.1
20260510003221 53 233 6.1 7.8 0.00 0.00 0.00 66 1007.0
20260510002720 53 144 3.5 5.2 0.00 0.00 0.00 66 1007.3
20260510002217 53 125 8.7 12.2 0.00 0.00 0.00 65 1007.3
20260510001714 53 157 6.1 12.2 0.00 0.00 0.00 65 1007.3
20260510001213 53 179 7.0 12.2 0.00 0.00 0.00 64 1007.3
20260510000708 54 148 10.4 13.9 0.00 0.00 0.00 63 1007.2
20260510000205 54 116 9.6 18.2 0.00 0.00 0.00 63 1007.2
20260509235702 54 183 6.1 7.0 0.00 0.00 0.00 62 1007.2
20260509235158 55 189 8.7 9.6 0.00 0.00 0.00 61 1007.3
20260509234654 55 187 7.8 8.7 0.00 0.00 0.00 61 1007.1
20260509234152 55 161 2.6 6.1 0.00 0.00 0.00 60 1007.2
20260509233650 55 164 5.2 7.0 0.00 0.00 0.00 60 1007.4
20260509233147 55 208 5.2 7.0 0.00 0.00 0.00 59 1007.0
20260509232643 55 178 7.0 12.2 0.00 0.00 0.00 58 1007.1
20260509232140 56 198 6.1 7.8 0.00 0.00 0.00 58 1007.0
20260509231637 56 152 7.0 11.3 0.00 0.00 0.00 57 1007.2
20260509231134 57 182 9.6 11.3 0.00 0.00 0.00 56 1007.4
20260509230631 57 192 7.0 8.7 0.00 0.00 0.00 55 1007.3
20260509230128 58 266 7.8 12.2 0.00 0.00 0.00 54 1007.5
20260509225624 58 155 9.6 13.9 0.00 0.00 0.00 54 1007.3
20260509225119 58 220 7.8 13.9 0.00 0.00 0.00 53 1007.3
20260509224614 58 198 11.3 19.1 0.00 0.00 0.00 53 1007.4
20260509224112 59 185 8.7 18.2 0.00 0.00 0.00 51 1007.4